Location: Skalnate Pleso
(49.1889°N, 20.2450°E)
Time: 20:53:00
(UTC+01:00)

ATLAS CENTAUR R/B - Pass Details

Date: 19 November 2019
Orbit: 457 x 691 km, 64.7° (Epoch: 30 November)

Event Time Altitude Azimuth Distance (km) Brightness Sun altitude
Exits shadow 05:55:40 - 241° (WSW) 2,989 4.7 -9.6°
Reaches altitude 10° 05:57:58 10° 248° (WSW) 2,132 3.9 -9.3°
Maximum altitude 06:02:36 41° 319° (NW) 969 2.2 -8.6°
Drops below altitude 10° 06:07:04 10° 30° (NNE) 2,059 4.4 -7.9°
Sets 06:09:26 0° 38° (NE) 2,938 5.3 -7.5°
